Retour au catalogue

SJ-4

ActifScienceHEO
NORAD 22996·PAYLOAD·🇨🇳 China

Lancé Feb 8, 1994 depuis Xichang Satellite Launch Center

Loading…

Prochains Passages (prochaines 24 heures)

TLE

FraisSource: Space-Track

Époque: Sep 12, 2026, 01:11 UTC

1 22996U 94010A   26255.04975833  .00000267  00000-0  21064-3 0  9992
2 22996  29.0002 167.0398 5550594  57.5435 344.4351  4.64226801451466

Suivez SJ-4 en temps réel avec AllMySat

Download on the App Store